EW9965 Weather Reports


time (UTC)temp
C
wind
direction
speed
KPH
gust
KPH
rain 1hr
cm
rain 24hr
cm
rain mn
cm
humidity
%
barometer
mb
20260503041543 16 205 0.0 0.0 0.00 0.00 0.00 80 1012.0
20260503040043 16 225 0.0 0.0 0.00 0.00 0.00 79 1011.7
20260503034558 17 232 0.0 3.2 0.00 0.00 0.00 78 1011.4
20260503033051 17 230 0.0 6.4 0.00 0.00 0.00 77 1011.3
20260503031542 17 228 0.0 8.0 0.00 0.00 0.00 76 1011.1
20260503030043 18 197 0.0 8.0 0.00 0.00 0.00 74 1011.1
20260503024539 18 185 4.8 11.3 0.00 0.00 0.00 72 1011.1
20260503023037 19 210 1.6 9.7 0.00 0.00 0.00 70 1011.0
20260503021536 20 183 0.0 9.7 0.00 0.00 0.00 69 1010.8
20260503020036 20 225 4.8 12.9 0.00 0.00 0.00 67 1010.9
20260503014540 21 231 3.2 12.9 0.00 0.00 0.00 65 1010.7
20260503013034 22 197 1.6 9.7 0.00 0.00 0.00 63 1010.7
20260503011533 22 210 0.0 11.3 0.00 0.00 0.00 62 1010.6
20260503010035 23 255 4.8 11.3 0.00 0.00 0.00 61 1010.6
20260503004532 23 237 3.2 12.9 0.00 0.00 0.00 60 1010.5
20260503003047 24 247 1.6 11.3 0.00 0.00 0.00 58 1010.5
20260503001548 25 242 3.2 12.9 0.00 0.00 0.00 56 1010.5
20260503000032 25 231 6.4 12.9 0.00 0.00 0.00 55 1010.2
20260502234534 26 238 6.4 16.1 0.00 0.00 0.00 55 1010.4
20260502233030 26 171 6.4 16.1 0.00 0.00 0.00 54 1010.5
20260502231527 26 231 8.0 14.5 0.00 0.00 0.00 55 1010.4
20260502230032 26 238 4.8 12.9 0.00 0.00 0.00 54 1010.5
20260502224524 26 209 6.4 14.5 0.00 0.00 0.00 54 1010.8
20260502223023 26 198 4.8 16.1 0.00 0.00 0.00 54 1010.9
20260502221521 26 263 6.4 16.1 0.00 0.00 0.00 54 1011.3
20260502220019 27 274 4.8 17.7 0.00 0.00 0.00 53 1011.4
20260502214518 26 265 6.4 20.9 0.00 0.00 0.00 54 1011.4
20260502213022 27 253 6.4 16.1 0.00 0.00 0.00 52 1011.7
20260502211518 27 183 3.2 16.1 0.00 0.00 0.00 51 1011.7
20260502210015 26 262 4.8 14.5 0.00 0.00 0.00 51 1011.6
20260502204514 26 195 4.8 12.9 0.00 0.00 0.00 53 1011.7
20260502203011 26 201 4.8 11.3 0.00 0.00 0.00 54 1011.7
20260502201505 25 211 1.6 12.9 0.00 0.00 0.00 56 1012.0
20260502200003 23 159 4.8 14.5 0.00 0.00 0.00 59 1012.4
20260502194559 23 71 3.2 9.7 0.00 0.00 0.00 60 1012.5
20260502193058 23 287 6.4 12.9 0.00 0.00 0.00 62 1012.7
20260502191553 22 176 1.6 11.3 0.00 0.00 0.00 65 1013.0
20260502190052 22 260 1.6 9.7 0.00 0.00 0.00 66 1013.3
20260502184602 21 149 6.4 12.9 0.00 0.00 0.00 69 1013.5
20260502183046 20 210 4.8 14.5 0.00 0.00 0.00 71 1013.6
20260502181541 18 256 4.8 9.7 0.00 0.00 0.00 77 1013.7
20260502163029 15 201 0.0 3.2 0.00 0.00 0.00 87 1014.9
20260502161514 15 184 0.0 8.0 0.00 0.00 0.00 88 1014.8
20260502151507 15 129 0.0 6.4 0.00 0.00 0.00 88 1014.6
20260502150109 15 269 1.6 6.4 0.00 0.00 0.00 88 1014.6
20260502123054 15 47 0.0 3.2 0.00 0.00 0.00 87 1013.7
20260502121536 15 62 0.0 3.2 0.00 0.00 0.00 87 1013.6
20260502114527 15 24 1.6 6.4 0.00 0.00 0.00 87 1013.7
20260502113023 15 81 0.0 3.2 0.00 0.00 0.00 87 1013.6
20260502111518 15 117 0.0 3.2 0.00 0.00 0.00 87 1013.6
20260502110014 15 177 4.8 8.0 0.00 0.00 0.00 87 1013.5
20260502104513 15 119 3.2 9.7 0.00 0.00 0.00 87 1013.4
20260502103013 14 156 0.0 0.0 0.00 0.00 0.00 87 1013.4
20260502101511 14 139 0.0 0.0 0.00 0.00 0.00 87 1013.3
20260502091507 14 129 0.0 0.0 0.00 0.00 0.00 86 1013.2
20260502090106 14 129 0.0 0.0 0.00 0.00 0.00 86 1013.1
20260502080107 15 43 0.0 0.0 0.00 0.00 0.00 85 1013.9
20260502070055 15 56 0.0 0.0 0.00 0.00 0.00 84 1014.1
20260502064554 15 56 0.0 0.0 0.00 0.00 0.00 83 1013.9
20260502063053 15 56 0.0 0.0 0.00 0.00 0.00 82 1014.0
20260502061552 15 115 0.0 0.0 0.00 0.00 0.00 82 1014.0
20260502060055 15 115 0.0 0.0 0.00 0.00 0.00 81 1014.1
20260502054550 15 115 0.0 0.0 0.00 0.00 0.00 81 1014.2
20260502053107 15 115 0.0 0.0 0.00 0.00 0.00 80 1014.0
20260502051551 15 115 0.0 0.0 0.00 0.00 0.00 80 1014.1
20260502050049 16 115 0.0 0.0 0.00 0.00 0.00 80 1014.1
20260502044549 16 115 0.0 0.0 0.00 0.00 0.00 79 1014.0
20260502043055 16 139 0.0 0.0 0.00 0.00 0.00 79 1014.0